Location: Centerville
(32.8776°N, 96.6203°W)
Time: 02:13:16
(UTC+00:00)

Cosmos 2219 Rocket - Pass Details

Date: 17 June 2021
Orbit: 829 x 846 km, 71.0° (Epoch: 27 July)

Event Time Altitude Azimuth Distance (km) Brightness Sun altitude
Exits shadow 04:10:49 60° 104° (ESE) 962 2.2 -25.0°
Drops below altitude 10° 04:16:20 10° 28° (NNE) 2,470 4.9 -25.6°
Sets 04:18:49 0° 25° (NNE) 3,407 5.8 -25.9°
